Location: Eitze
(52.9840°N, 9.6894°E)
Time: 00:47:55
(UTC+00:00)

ISS - Pass Details

Date: 19 May 2025
Orbit: 415 x 417 km, 51.6° (Epoch: 15 June)

Event Time Altitude Azimuth Distance (km) Brightness Sun altitude
Rises 21:53:08 0° 280° (W) 2,361 0.5 -14.8°
Reaches altitude 10° 21:55:30 10° 265° (W) 1,494 -0.8 -14.9°
Maximum altitude 21:58:11 22° 212° (SSW) 959 -2.3 -15.0°
Enters shadow 21:58:14 22° 210° (SSW) 960 -2.3 -15.0°
